• Join FlightAware (Why Join?)
  • Login
  • US Flag 
06:11PM EST


 

Airport Tracker/Info


-or-


 

Live Flight TrackerFlight Track Log ✈ KAP927 ✈ 21-Jun-2013 ✈ KBOS - KALB

Flight Track Log - Related Links

Times and Time Zones

All times are in EDT time to prevent confusion due to time zone crossing. See the KAP927 flight status page for this flight to view local times or setup timezone preferences in your user account.

Time Position Orientation Groundspeed Altitude Reporting Facility
EDT Latitude Longitude Course Direction KTS MPH feet Rate Location/Type
01:07PM 42.3667 -71.0167 236° Southwest 109 125 400  Level KA90
01:08PM 42.3500 -71.0500 236° Southwest 108 124 1,300 636 Climbing KA90
01:09PM 42.3333 -71.1000 246° West 108 124 1,800 500 Climbing KA90
01:10PM 42.3333 -71.1333 270° West 117 135 2,300 500 Climbing KA90
01:11PM 42.3333 -71.1833 270° West 119 137 2,800 400 Climbing KA90
01:12PM 42.3500 -71.2167 304° West 116 133 3,100 450 Climbing KA90
01:13PM 42.3500 -71.2667 270° West 122 140 3,700 579 Climbing KA90
01:14PM 42.3667 -71.3000 304° West 123 142 4,200 450 Climbing KA90
01:15PM 42.3667 -71.3500 270° West 126 145 4,600 286 Climbing KA90
01:16PM 42.3667 -71.4000 270° West 134 154 4,800 105 Climbing KA90
01:17PM 42.3833 -71.4500 294° West 144 166 4,800 211 Level KA90
01:18PM 42.4000 -71.5000 294° West 134 154 5,200 468 Climbing KA90
01:20PM 42.4056 -71.5742 276° West 126 145 6,000 503 Climbing Boston Center
01:21PM 42.4119 -71.6189 281° West 121 139 6,500 446 Climbing Boston Center
01:22PM 42.4186 -71.6611 282° West 121 139 6,900 403 Climbing Boston Center
01:23PM 42.4272 -71.7058 285° West 121 139 7,300 454 Climbing Boston Center
01:24PM 42.4336 -71.7481 282° West 126 145 7,800 500 Climbing Boston Center
01:25PM 42.4422 -71.7931 285° West 126 145 8,300 347 Climbing Boston Center
01:26PM 42.4489 -71.8408 281° West 126 145 8,500 150 Climbing Boston Center
01:27PM 42.4575 -71.8969 282° West 143 165 8,600  Climbing Boston Center
01:28PM 42.4681 -71.9531 284° West 154 177 8,500 -50 Descending Boston Center
01:29PM 42.4789 -72.0122 284° West 160 184 8,500 50 Level Boston Center
01:30PM 42.4853 -72.0742 278° West 160 184 8,600 50 Climbing Boston Center
01:31PM 42.4958 -72.1331 284° West 160 184 8,600 -50 Level Boston Center
01:32PM 42.5064 -72.1922 284° West 160 184 8,500 -46 Descending Boston Center
01:33PM 42.5169 -72.2625 282° West 160 184 8,500  Level Boston Center
01:34PM 42.5275 -72.3217 284° West 160 184 8,500  Level Boston Center
01:35PM 42.5339 -72.3781 279° West 160 184 8,500  Level Boston Center
01:36PM 42.5442 -72.4317 285° West 160 184 8,500  Level Boston Center
01:37PM 42.5525 -72.4881 281° West 160 184 8,500  Level Boston Center
01:38PM 42.5631 -72.5417 285° West 160 184 8,500  Level Boston Center
01:39PM 42.5711 -72.5981 281° West 160 184 8,500  Level Boston Center
01:40PM 42.5775 -72.6458 280° West 160 184 8,500  Level Boston Center
01:41PM 42.5856 -72.6994 282° West 152 175 8,500  Level Boston Center
01:42PM 42.5939 -72.7617 280° West 152 175 8,500 -101 Level Boston Center
01:43PM 42.6019 -72.8097 283° West 147 169 8,300 -350 Descending Boston Center
01:44PM 42.6122 -72.8772 282° West 166 191 7,800 -500 Descending Boston Center
01:45PM 42.6244 -72.9422 284° West 172 198 7,300 -555 Descending Boston Center
01:46PM 42.6344 -73.0131 281° West 177 204 6,700 -588 Descending Boston Center
01:47PM 42.6447 -73.0525 290° West 173 199 6,300 -532 Descending Boston Center
01:47PM 42.6508 -73.0922 282° West 170 196 6,000 -538 Descending Boston Center
01:48PM 42.6567 -73.1344 281° West 177 204 5,600 -565 Descending Boston Center
01:49PM 42.6628 -73.1825 280° West 165 190 5,200 -519 Descending Boston Center
01:50PM 42.6686 -73.2419 278° West 166 191 4,700 -446 Descending Boston Center
01:51PM 42.6764 -73.3042 280° West 161 185 4,300 -295 Descending Boston Center
01:52PM 42.6906 -73.3608 289° West 161 185 4,100 -298 Descending Boston Center
01:53PM 42.7006 -73.4203 283° West 159 183 3,700 -397 Descending Boston Center
01:54PM 42.7144 -73.4828 287° West 158 182 3,300 -326 Descending Boston Center
01:54PM 42.7183 -73.5083 282° West 159 183 3,200 -243 Descending Boston Center
01:55PM 42.7264 -73.5508 284° West 165 190 3,000 -353 Descending Boston Center
01:56PM 42.7342 -73.5961 283° West 164 189 2,700 -429 Descending Boston Center
01:56PM 42.7400 -73.6414 280° West 173 199 2,400 -446 Descending Boston Center
01:58PM 42.7494 -73.7208 279° West 163 188 1,800 -643 Descending Boston Center
01:59PM 42.7489 -73.7689 269° West 113 130 900 -885 Descending Boston Center
02:01PM 42.7333 -73.8000 270° West  Level FlightAware Approximate
02:08PM 42.7491 -73.8020 270° West  Level Estimated
02:09PM 42.7491 -73.8020 270° West  Level Estimated
02:10PM 42.7491 -73.8020 270° West  Level Estimated